timestamp,wind_dir_avg,wind_spd_avg,wind_spd_max_dir,wind_spd_gust,battery_voltage,lat,long
2024-02-19 00:04:00+00:00,269.0,14.11,265.0,18.48,12.25,47.59359,-54.27349
2024-02-19 00:14:00+00:00,270.0,11.75,269.0,15.25,12.17,47.59359,-54.27349
2024-02-19 00:24:00+00:00,260.0,11.74,262.0,13.96,12.17,47.59359,-54.27349
2024-02-19 00:34:00+00:00,276.0,12.21,277.0,14.43,12.17,47.59359,-54.27349
2024-02-19 00:44:00+00:00,262.0,12.92,259.0,14.57,12.17,47.59359,-54.27349
2024-02-19 00:54:00+00:00,262.0,11.97,273.0,19.99,12.17,47.59359,-54.27349
2024-02-19 01:04:00+00:00,251.0,11.51,256.0,15.24,12.17,47.59359,-54.27349
2024-02-19 01:14:00+00:00,261.0,12.77,267.0,19.95,12.17,47.59359,-54.27349
2024-02-19 01:24:00+00:00,267.0,11.47,267.0,15.24,12.17,47.59359,-54.27349
2024-02-19 01:34:00+00:00,254.0,12.74,255.0,14.82,12.17,47.59359,-54.27349
2024-02-19 01:44:00+00:00,263.0,11.4,268.0,14.75,12.17,47.59359,-54.27349
2024-02-19 01:54:00+00:00,274.0,12.01,273.0,14.45,12.17,47.59359,-54.27349
2024-02-19 02:04:00+00:00,254.0,13.14,249.0,15.02,12.17,47.59359,-54.27349
2024-02-19 02:14:00+00:00,266.0,13.07,260.0,17.94,12.17,47.59359,-54.27349
2024-02-19 02:24:00+00:00,269.0,13.09,272.0,19.04,12.17,47.59359,-54.27349
2024-02-19 02:34:00+00:00,261.0,15.14,262.0,20.52,12.17,47.59359,-54.27349
2024-02-19 02:44:00+00:00,258.0,15.02,266.0,20.85,12.17,47.59359,-54.27349
2024-02-19 02:54:00+00:00,261.0,11.81,253.0,15.04,12.17,47.59359,-54.27349
2024-02-19 03:04:00+00:00,250.0,13.88,257.0,17.65,12.17,47.59359,-54.27349
2024-02-19 03:14:00+00:00,251.0,12.75,248.0,14.55,12.09,47.59359,-54.27349
2024-02-19 03:24:00+00:00,247.0,13.33,248.0,14.83,12.09,47.59359,-54.27349
2024-02-19 03:34:00+00:00,257.0,13.08,256.0,14.85,12.09,47.59359,-54.27349
2024-02-19 03:44:00+00:00,253.0,12.28,251.0,15.26,12.09,47.59359,-54.27349
2024-02-19 03:54:00+00:00,258.0,15.76,258.0,18.55,12.09,47.59359,-54.27349
2024-02-19 04:04:00+00:00,261.0,13.45,259.0,15.22,12.09,47.59359,-54.27349
2024-02-19 04:14:01+00:00,250.0,12.83,252.0,16.23,12.09,47.59359,-54.27349
2024-02-19 04:24:01+00:00,261.0,13.32,258.0,17.05,12.09,47.59359,-54.27349
2024-02-19 04:34:01+00:00,251.0,13.72,256.0,20.52,12.09,47.59359,-54.27349
2024-02-19 04:44:01+00:00,255.0,11.75,256.0,15.59,12.09,47.59359,-54.27349
2024-02-19 04:54:01+00:00,249.0,12.07,250.0,15.2,12.09,47.59359,-54.27349
2024-02-19 05:04:01+00:00,256.0,11.92,249.0,14.54,12.09,47.59359,-54.27349
2024-02-19 05:14:00+00:00,260.0,13.19,260.0,18.3,12.09,47.59359,-54.27349
2024-02-19 05:24:00+00:00,249.0,13.29,252.0,19.17,12.09,47.59359,-54.27349
2024-02-19 05:34:00+00:00,254.0,12.34,256.0,14.28,12.09,47.59359,-54.27349
2024-02-19 05:44:00+00:00,256.0,12.58,254.0,14.77,12.09,47.59359,-54.27349
2024-02-19 05:54:00+00:00,258.0,12.71,258.0,14.18,12.09,47.59359,-54.27349
2024-02-19 06:04:00+00:00,253.0,11.28,248.0,14.5,12.09,47.59359,-54.27349
2024-02-19 06:14:00+00:00,251.0,12.01,255.0,14.79,12.01,47.59359,-54.27349
2024-02-19 06:24:00+00:00,258.0,11.99,261.0,14.31,12.01,47.59359,-54.27349
2024-02-19 06:34:00+00:00,252.0,12.61,253.0,14.84,12.01,47.59359,-54.27349
2024-02-19 06:44:00+00:00,251.0,12.35,253.0,15.37,12.01,47.59359,-54.27349
2024-02-19 06:54:00+00:00,256.0,11.53,252.0,14.64,12.01,47.59359,-54.27349
2024-02-19 07:04:00+00:00,258.0,11.16,261.0,13.9,12.01,47.59359,-54.27349
2024-02-19 07:14:01+00:00,252.0,13.58,251.0,14.98,12.01,47.59359,-54.27349
2024-02-19 07:24:01+00:00,246.0,12.98,248.0,14.72,12.01,47.59359,-54.27349
2024-02-19 07:34:01+00:00,250.0,13.98,247.0,15.23,12.01,47.59359,-54.27349
2024-02-19 07:44:01+00:00,243.0,11.89,244.0,14.09,12.01,47.59359,-54.27349
2024-02-19 07:54:01+00:00,239.0,13.25,253.0,20.45,12.01,47.59359,-54.27349
2024-02-19 08:04:01+00:00,243.0,12.96,236.0,15.65,12.01,47.59359,-54.27349
2024-02-19 08:14:01+00:00,239.0,12.58,245.0,15.37,11.93,47.59359,-54.27349
2024-02-19 08:24:01+00:00,240.0,12.45,253.0,17.39,11.93,47.59359,-54.27349
2024-02-19 08:34:01+00:00,248.0,12.6,250.0,15.27,11.93,47.59359,-54.27349
2024-02-19 08:44:01+00:00,244.0,11.94,255.0,15.52,11.93,47.59359,-54.27349
2024-02-19 08:54:01+00:00,252.0,12.66,240.0,15.47,11.93,47.59359,-54.27349
2024-02-19 09:04:01+00:00,249.0,13.84,245.0,15.35,11.93,47.59359,-54.27349
2024-02-19 10:14:00+00:00,240.0,7.66,251.0,12.19,11.93,47.59359,-54.27349
2024-02-19 10:24:00+00:00,238.0,9.24,252.0,13.5,11.93,47.59359,-54.27349
2024-02-19 10:34:00+00:00,244.0,8.6,255.0,13.0,11.93,47.59359,-54.27349
2024-02-19 10:44:00+00:00,242.0,9.34,257.0,13.65,11.93,47.59359,-54.27349
2024-02-19 10:54:00+00:00,233.0,8.2,237.0,10.23,11.93,47.59359,-54.27349
2024-02-19 11:04:00+00:00,247.0,12.76,250.0,15.21,11.93,47.59359,-54.27349
2024-02-19 11:14:00+00:00,245.0,12.31,247.0,15.04,12.49,47.59359,-54.27349
2024-02-19 11:24:00+00:00,237.0,10.1,240.0,14.5,12.49,47.59359,-54.27349
2024-02-19 11:34:00+00:00,250.0,12.99,253.0,14.6,12.49,47.59359,-54.27349
2024-02-19 11:44:00+00:00,238.0,10.47,250.0,14.11,12.49,47.59359,-54.27349
2024-02-19 11:54:00+00:00,234.0,9.59,239.0,11.94,12.49,47.59359,-54.27349
2024-02-19 12:04:00+00:00,240.0,13.86,239.0,15.7,12.49,47.59359,-54.27349
2024-02-19 12:14:00+00:00,239.0,9.02,244.0,11.96,14.4,47.59359,-54.27349
2024-02-19 12:24:00+00:00,237.0,9.34,246.0,13.2,14.4,47.59359,-54.27349
2024-02-19 12:34:00+00:00,229.0,10.15,239.0,14.89,14.4,47.59359,-54.27349
2024-02-19 12:44:00+00:00,231.0,7.36,253.0,13.49,14.4,47.59359,-54.27349
2024-02-19 12:54:00+00:00,222.0,7.19,235.0,9.89,14.4,47.59359,-54.27349
2024-02-19 13:04:00+00:00,224.0,9.65,241.0,14.27,14.4,47.59359,-54.27349
2024-02-19 13:14:01+00:00,235.0,10.28,245.0,14.29,13.6,47.59359,-54.27349
2024-02-19 13:24:01+00:00,233.0,11.58,237.0,14.95,13.6,47.59359,-54.27349
2024-02-19 13:34:01+00:00,236.0,12.52,239.0,16.0,13.6,47.59359,-54.27349
2024-02-19 13:44:01+00:00,243.0,11.81,241.0,15.29,13.6,47.59359,-54.27349
2024-02-19 13:54:01+00:00,241.0,9.69,248.0,13.91,13.6,47.59359,-54.27349
2024-02-19 14:04:01+00:00,230.0,10.41,240.0,14.35,13.6,47.59359,-54.27349
2024-02-19 14:14:01+00:00,242.0,14.22,240.0,16.22,13.44,47.59359,-54.27349
2024-02-19 14:24:01+00:00,248.0,14.0,250.0,15.27,13.44,47.59359,-54.27349
2024-02-19 14:34:01+00:00,248.0,10.17,251.0,14.12,13.44,47.59359,-54.27349
2024-02-19 14:44:01+00:00,240.0,8.29,248.0,10.18,13.44,47.59359,-54.27349
2024-02-19 14:54:01+00:00,232.0,3.9,251.0,7.56,13.44,47.59359,-54.27349
2024-02-19 15:04:01+00:00,229.0,3.01,249.0,5.06,13.44,47.59359,-54.27349
2024-02-19 15:14:00+00:00,269.0,4.49,269.0,6.63,13.6,47.59359,-54.27349
2024-02-19 15:24:00+00:00,277.0,5.93,280.0,6.46,13.6,47.59359,-54.27349
2024-02-19 15:34:00+00:00,270.0,5.66,271.0,6.27,13.6,47.59359,-54.27349
2024-02-19 15:44:00+00:00,275.0,4.99,276.0,5.38,13.6,47.59359,-54.27349
2024-02-19 15:54:00+00:00,307.0,1.02,289.0,2.01,13.6,47.59359,-54.27349
2024-02-19 16:04:00+00:00,2.0,2.58,358.0,2.94,13.6,47.59359,-54.27349
2024-02-19 16:14:00+00:00,4.0,2.11,1.0,2.59,13.37,47.59359,-54.27349
2024-02-19 16:24:00+00:00,28.0,1.58,70.0,4.76,13.37,47.59359,-54.27349
2024-02-19 16:34:00+00:00,9.0,2.03,11.0,2.35,13.37,47.59359,-54.27349
2024-02-19 16:44:00+00:00,2.0,3.1,1.0,3.74,13.37,47.59359,-54.27349
2024-02-19 16:54:00+00:00,359.0,2.99,1.0,3.32,13.37,47.59359,-54.27349
2024-02-19 17:04:00+00:00,41.0,4.05,56.0,5.85,13.37,47.59359,-54.27349
2024-02-19 17:14:00+00:00,18.0,3.33,61.0,5.78,13.53,47.59359,-54.27349
2024-02-19 17:24:00+00:00,1.0,3.41,358.0,4.0,13.53,47.59359,-54.27349
2024-02-19 17:34:00+00:00,350.0,3.65,335.0,4.22,13.53,47.59359,-54.27349
2024-02-19 17:44:00+00:00,352.0,4.3,331.0,5.26,13.53,47.59359,-54.27349
2024-02-19 17:54:00+00:00,358.0,3.93,357.0,4.5,13.53,47.59359,-54.27349
2024-02-19 18:04:00+00:00,299.0,5.91,298.0,6.38,13.53,47.59359,-54.27349
2024-02-19 18:14:00+00:00,310.0,4.91,307.0,6.92,13.29,47.59359,-54.27349
2024-02-19 18:24:00+00:00,294.0,6.0,298.0,6.72,13.29,47.59359,-54.27349
2024-02-19 18:34:00+00:00,295.0,6.65,299.0,7.12,13.29,47.59359,-54.27349
2024-02-19 18:44:00+00:00,299.0,4.48,297.0,6.89,13.29,47.59359,-54.27349
2024-02-19 18:54:00+00:00,290.0,5.62,289.0,6.98,13.29,47.59359,-54.27349
2024-02-19 19:04:00+00:00,316.0,5.58,303.0,7.79,13.29,47.59359,-54.27349
2024-02-19 19:14:00+00:00,299.0,5.05,290.0,7.16,13.6,47.59359,-54.27349
2024-02-19 19:24:00+00:00,294.0,4.59,297.0,5.58,13.6,47.59359,-54.27349
2024-02-19 19:34:00+00:00,295.0,3.95,288.0,4.76,13.6,47.59359,-54.27349
2024-02-19 19:44:00+00:00,288.0,4.16,297.0,5.44,13.6,47.59359,-54.27349
2024-02-19 19:54:00+00:00,302.0,5.25,296.0,6.56,13.6,47.59359,-54.27349
2024-02-19 20:04:00+00:00,297.0,5.44,299.0,6.0,13.6,47.59359,-54.27349
2024-02-19 20:14:00+00:00,270.0,5.31,268.0,5.78,13.29,47.59359,-54.27349
2024-02-19 20:24:00+00:00,272.0,4.9,272.0,5.11,13.29,47.59359,-54.27349
2024-02-19 20:34:00+00:00,269.0,6.23,274.0,7.37,13.29,47.59359,-54.27349
2024-02-19 20:44:00+00:00,288.0,6.08,287.0,7.09,13.29,47.59359,-54.27349
2024-02-19 20:54:00+00:00,272.0,6.25,276.0,7.54,13.29,47.59359,-54.27349
2024-02-19 21:04:00+00:00,279.0,9.4,278.0,13.03,13.29,47.59359,-54.27349
2024-02-19 21:14:00+00:00,275.0,10.4,274.0,13.35,13.05,47.59359,-54.27349
2024-02-19 21:24:00+00:00,273.0,8.82,274.0,13.33,13.05,47.59359,-54.27349
2024-02-19 21:34:00+00:00,267.0,7.93,270.0,11.73,13.05,47.59359,-54.27349
2024-02-19 21:44:00+00:00,269.0,7.39,266.0,10.92,13.05,47.59359,-54.27349
2024-02-19 21:54:00+00:00,271.0,3.79,273.0,5.58,13.05,47.59359,-54.27349
2024-02-19 22:04:00+00:00,262.0,3.99,261.0,7.43,13.05,47.59359,-54.27349
2024-02-19 22:14:00+00:00,251.0,4.51,253.0,7.72,12.41,47.59359,-54.27349
2024-02-19 22:24:00+00:00,266.0,3.85,267.0,7.57,12.41,47.59359,-54.27349
2024-02-19 22:34:00+00:00,239.0,5.36,246.0,7.71,12.41,47.59359,-54.27349
2024-02-19 22:44:00+00:00,241.0,3.1,255.0,5.98,12.41,47.59359,-54.27349
2024-02-19 22:54:00+00:00,238.0,4.67,259.0,5.99,12.41,47.59359,-54.27349
2024-02-19 23:04:00+00:00,226.0,4.24,237.0,6.0,12.41,47.59359,-54.27349
2024-02-19 23:14:00+00:00,226.0,5.39,229.0,6.35,12.25,47.59359,-54.27349
2024-02-19 23:24:00+00:00,226.0,5.77,220.0,6.93,12.25,47.59359,-54.27349
2024-02-19 23:34:00+00:00,230.0,4.93,228.0,6.06,12.25,47.59359,-54.27349
2024-02-19 23:44:00+00:00,231.0,5.58,228.0,6.36,12.25,47.59359,-54.27349
2024-02-19 23:54:00+00:00,230.0,4.84,234.0,5.97,12.25,47.59359,-54.27349
